EW3845 Weather Reports


Display with metric or nautical units.
time (UTC)temp
F
wind
direction
speed
MPH
gust
MPH
rain 1hr
in
rain 24hr
in
rain mn
in
humidity
%
barometer
mb
20260831193032 62 360 0.0 0.0 0.00 0.33 0.33 91 1015.1
20260831191530 62 360 0.0 0.0 0.00 0.33 0.33 91 1014.9
20260831190035 62 285 0.0 0.0 0.00 0.33 0.33 91 1014.7
20260831184526 62 288 0.0 0.0 0.00 0.33 0.33 90 1014.5
20260831183025 62 288 0.0 0.0 0.00 0.33 0.33 90 1014.3
20260831181523 62 288 0.0 0.0 0.00 0.33 0.33 90 1014.1
20260831180022 63 360 0.0 0.0 0.00 0.33 0.33 91 1013.7
20260831175057 63 360 0.0 0.0 0.00 1.65 0.33 91 1013.8
20260831174608 63 284 0.0 0.0 0.00 1.65 0.33 91 1013.7
20260831174054 63 360 0.0 0.0 0.00 1.65 0.33 91 1013.7
20260831173651 63 286 0.0 0.0 0.00 1.65 0.33 92 1013.5
20260831173018 63 296 0.0 0.0 0.00 0.33 0.33 92 1013.3
20260831171523 63 286 0.0 0.0 0.00 0.33 0.33 93 1013.1
20260831170016 63 289 0.0 0.0 0.00 0.33 0.33 93 1013.0
20260831164513 63 286 0.0 0.0 0.00 0.33 0.33 92 1012.8
20260831163013 63 288 0.0 0.0 0.03 0.33 0.33 93 1012.8
20260831161511 62 360 0.0 0.0 0.08 0.33 0.33 93 1012.7
20260831160011 62 298 0.0 0.0 0.17 0.33 0.33 92 1012.7
20260831154520 61 290 0.0 0.0 0.22 0.33 0.33 91 1012.6
20260831153010 61 291 0.0 0.0 0.21 0.30 0.30 89 1012.6
20260831151506 61 360 0.0 0.0 0.15 0.24 0.24 87 1012.4
20260831150005 63 288 0.0 0.0 0.07 0.16 0.16 87 1012.1
20260831144502 65 298 0.0 0.0 0.02 0.10 0.10 85 1011.9
20260831143104 65 284 0.0 0.0 0.00 0.09 0.09 85 1011.5
20260831141559 64 360 0.0 0.0 0.00 0.09 0.09 87 1011.5
20260831140059 63 360 0.0 0.0 0.02 0.09 0.09 88 1011.3
20260831134558 63 360 0.0 0.0 0.02 0.09 0.09 88 1011.2
20260831133102 63 360 0.0 0.0 0.02 0.09 0.09 86 1011.2
20260831131603 64 286 0.0 0.0 0.02 0.09 0.09 86 1010.9
20260831124602 66 287 0.0 0.0 0.00 0.07 0.07 83 1010.1
20260831123056 66 288 0.0 0.0 0.00 0.07 0.07 85 1010.2
20260831121553 66 295 0.0 0.0 0.01 0.07 0.07 86 1010.2
20260831120052 67 360 0.0 0.0 0.02 0.07 0.07 89 1010.2
20260831114556 65 360 0.0 0.0 0.02 0.07 0.07 89 1010.4
20260831113056 65 284 0.0 0.0 0.02 0.07 0.07 88 1010.6
20260831111556 66 288 0.0 0.0 0.03 0.06 0.06 87 1010.6
20260831110052 65 286 0.0 0.0 0.02 0.05 0.05 90 1010.4
20260831104550 63 360 0.0 0.0 0.02 0.05 0.05 88 1010.6
20260831103048 63 360 0.0 0.0 0.02 0.05 0.05 85 1010.7
20260831101548 66 303 0.0 0.0 0.01 0.03 0.03 80 1010.7
20260831100110 68 360 0.0 0.0 0.00 0.02 0.02 72 1010.2
20260831094545 69 360 0.0 0.0 0.00 0.02 0.02 72 1010.1
20260831093045 69 302 0.0 0.0 0.00 0.02 0.02 73 1010.0
20260831091549 67 248 0.0 0.0 0.00 0.02 0.02 75 1010.0
20260831090040 68 254 0.0 0.0 0.00 0.02 0.02 74 1010.0
20260831084554 67 360 0.0 0.0 0.00 0.02 0.02 76 1010.0
20260831083040 66 360 0.0 0.0 0.00 0.02 0.02 78 1010.3
20260831081536 66 299 0.0 0.0 0.00 0.02 0.02 78 1010.3
20260831080035 66 360 0.0 0.0 0.00 0.02 0.02 77 1010.3
20260831074537 66 360 0.0 0.0 0.00 0.02 0.02 78 1010.3
20260831073038 66 24 0.0 0.0 0.00 0.02 0.02 79 1010.3
20260831071533 66 294 0.0 0.0 0.00 0.02 0.02 81 1010.2
20260831070033 65 256 0.0 0.0 0.00 0.02 0.02 85 1010.0
20260831064532 64 190 0.0 0.0 0.00 0.02 0.02 86 1009.9
20260831063032 64 192 0.0 0.0 0.00 0.02 0.02 86 1010.2
20260831061532 63 360 0.0 0.0 0.00 0.02 0.02 87 1009.9
20260831060031 63 180 0.0 0.0 0.00 0.02 0.02 88 1009.9
20260831054531 63 360 0.0 0.0 0.00 0.02 0.02 88 1009.8
20260831053035 62 360 0.0 0.0 0.00 0.02 0.02 89 1009.8
20260831051529 62 360 0.0 0.0 0.00 0.02 0.02 89 1009.7
20260831050031 61 360 0.0 0.0 0.00 0.02 0.02 89 1009.7
20260831044530 61 360 0.0 0.0 0.00 0.02 0.02 89 1009.7
20260831043036 62 360 0.0 0.0 0.00 0.02 0.02 89 1009.6
20260831041526 62 275 0.0 0.0 0.00 0.02 0.02 89 1009.6
20260831040026 62 218 0.0 0.0 0.00 0.02 0.02 89 1009.5
20260831034525 62 213 0.0 0.0 0.00 0.02 0.02 90 1009.4
20260831033025 62 252 0.0 0.0 0.00 0.02 0.02 90 1009.4
20260831031530 62 254 0.0 0.0 0.00 0.02 0.02 90 1009.4
20260831030022 62 360 0.0 0.0 0.00 0.02 0.02 89 1009.4
20260831024525 62 360 0.0 0.0 0.00 0.02 0.02 89 1009.4
20260831023021 62 360 0.0 0.0 0.01 0.02 0.02 88 1009.1
20260831021519 63 360 0.0 0.0 0.02 0.02 0.02 87 1009.2
20260831020017 63 360 0.0 0.0 0.02 0.02 0.02 87 1009.1
20260831014515 64 360 0.0 0.0 0.02 0.02 0.02 85 1009.3
20260831013030 64 257 0.0 0.0 0.01 0.01 0.01 83 1009.6
20260831011517 64 225 0.0 0.0 0.00 0.00 0.00 80 1009.3
20260831010015 65 226 0.0 0.0 0.00 0.02 0.00 79 1009.3
20260831004513 65 225 0.0 0.0 0.00 0.02 0.00 79 1009.3
20260831003014 65 225 0.0 0.0 0.00 0.02 0.00 79 1009.4
20260831001518 65 225 0.0 0.0 0.00 0.02 0.00 78 1009.7
20260831000003 65 225 0.0 0.0 0.00 0.02 0.00 77 1009.8
20260830234502 66 230 0.0 0.0 0.00 0.02 0.00 77 1009.8
20260830233001 66 232 0.0 0.0 0.00 0.02 0.00 76 1009.7
20260830231607 66 238 0.0 0.0 0.00 0.02 0.00 76 1009.7
20260830230058 66 238 0.0 0.0 0.00 0.02 0.00 76 1009.8
20260830224607 67 238 0.0 0.0 0.00 0.02 0.00 76 1009.9
20260830223056 67 239 0.0 0.0 0.00 0.02 0.00 75 1009.9
20260830221554 67 240 0.0 0.0 0.00 0.02 0.00 75 1010.1
20260830220056 67 242 0.0 0.0 0.00 0.02 0.02 75 1010.2
20260830214553 67 248 0.0 0.0 0.00 0.02 0.02 75 1010.2
20260830213052 67 254 0.0 0.0 0.00 0.02 0.02 75 1010.4
20260830211551 67 360 0.0 0.0 0.00 0.02 0.02 75 1010.3
20260830210100 67 360 0.0 0.0 0.00 0.02 0.02 75 1010.5
20260830204554 67 360 0.0 0.0 0.00 0.02 0.02 76 1010.6
20260830203050 67 360 0.0 0.0 0.00 0.02 0.02 76 1010.6
20260830201554 67 360 0.0 0.0 0.00 0.02 0.02 76 1010.7
20260830200104 67 360 0.0 0.0 0.00 0.02 0.02 75 1010.9
20260830194608 67 360 0.0 0.0 0.00 0.02 0.02 75 1011.0